CW4549 Weather Reports


time (UTC)temp
C
wind
direction
speed
KPH
gust
KPH
rain 1hr
cm
rain 24hr
cm
rain mn
cm
humidity
%
barometer
mb
20260902211517 33 0.0 3.2 0.00 0.00 0.00 55 1010.7
20260902210018 34 0.0 9.7 0.00 0.00 0.00 55 1010.9
20260902204517 35 0.0 11.3 0.00 0.00 0.00 51 1011.1
20260902203017 35 158 1.6 12.9 0.00 0.00 0.00 49 1011.0
20260902201519 35 158 1.6 12.9 0.00 0.00 0.00 52 1011.2
20260902200017 35 158 1.6 8.0 0.00 0.00 0.00 52 1011.2
20260902194517 35 158 1.6 12.9 0.00 0.00 0.00 50 1011.4
20260902193017 35 158 1.6 9.7 0.00 0.00 0.00 52 1011.6
20260902191559 35 0.0 4.8 0.00 0.00 0.00 51 1011.8
20260902190017 34 158 1.6 11.3 0.00 0.00 0.00 52 1012.0
20260902184537 35 0.0 9.7 0.00 0.00 0.00 50 1012.0
20260902183018 35 158 1.6 16.1 0.00 0.00 0.00 52 1012.1
20260902181542 35 158 1.6 12.9 0.00 0.00 0.00 52 1012.2
20260902180017 34 0.0 8.0 0.00 0.00 0.00 53 1012.4
20260902174518 34 0.0 6.4 0.00 0.00 0.00 53 1012.4
20260902173017 34 0.0 11.3 0.00 0.00 0.00 53 1012.7
20260902171517 33 0.0 4.8 0.00 0.00 0.00 58 1012.8
20260902170017 34 0.0 4.8 0.00 0.00 0.00 59 1012.7
20260902164517 34 158 1.6 9.7 0.00 0.00 0.00 58 1012.8
20260902163037 33 0.0 8.0 0.00 0.00 0.00 61 1012.9
20260902161519 33 158 3.2 16.1 0.00 0.00 0.00 62 1013.0
20260902160018 33 0.0 9.7 0.00 0.00 0.00 61 1013.0
20260902154517 32 158 1.6 11.3 0.00 0.00 0.00 63 1013.1
20260902153017 32 158 1.6 11.3 0.00 0.00 0.00 64 1013.3
20260902151518 31 0.0 4.8 0.00 0.00 0.00 67 1013.3
20260902150019 31 0.0 9.7 0.00 0.00 0.00 67 1013.3
20260902144517 30 0.0 9.7 0.00 0.00 0.00 69 1013.3
20260902143037 30 0.0 4.8 0.00 0.00 0.00 73 1013.3
20260902141558 28 0.0 1.6 0.00 0.00 0.00 77 1013.3
20260902140015 28 0.0 11.3 0.00 0.00 0.00 80 1013.4
20260902134516 27 0.0 6.4 0.00 0.00 0.00 80 1013.5
20260902133015 27 0.0 4.8 0.00 0.00 0.00 81 1013.5
20260902131515 26 0.0 4.8 0.00 0.00 0.00 83 1013.5
20260902130016 26 0.0 8.0 0.00 0.00 0.00 86 1013.4
20260902124517 25 0.0 1.6 0.00 0.00 0.00 89 1013.4
20260902123015 25 0.0 0.0 0.00 0.00 0.00 93 1013.3
20260902121515 24 0.0 0.0 0.00 0.00 0.00 95 1013.2
20260902120015 23 0.0 0.0 0.00 0.00 0.00 96 1013.0
20260902114515 23 0.0 0.0 0.00 0.00 0.00 97 1012.9
20260902113038 23 0.0 0.0 0.00 0.00 0.00 98 1012.8
20260902111515 23 0.0 0.0 0.00 0.00 0.00 99 1012.6
20260902110015 23 0.0 0.0 0.00 0.00 0.00 99 1012.6
20260902104517 23 0.0 0.0 0.00 0.00 0.00 99 1012.7
20260902103057 23 0.0 0.0 0.00 0.00 0.00 99 1012.6
20260902101516 23 0.0 0.0 0.00 0.00 0.00 99 1012.6
20260902100017 23 0.0 0.0 0.00 0.00 0.00 99 1012.4
20260902094516 23 0.0 0.0 0.00 0.00 0.00 99 1012.4
20260902093018 23 0.0 0.0 0.00 0.00 0.00 99 1012.4
20260902091516 23 0.0 0.0 0.00 0.00 0.00 99 1012.3
20260902090036 23 0.0 0.0 0.00 0.00 0.00 99 1012.2
20260902084516 23 0.0 0.0 0.00 0.00 0.00 99 1012.1
20260902083017 23 0.0 0.0 0.00 0.00 0.00 98 1011.8
20260902081516 23 0.0 0.0 0.00 0.00 0.00 98 1011.8
20260902080016 23 0.0 0.0 0.00 0.00 0.00 98 1011.7
20260902074517 23 0.0 0.0 0.00 0.00 0.00 97 1011.7
20260902073016 23 0.0 0.0 0.00 0.00 0.00 97 1011.7
20260902071517 23 0.0 0.0 0.00 0.00 0.00 96 1011.7
20260902070018 23 0.0 0.0 0.00 0.00 0.00 96 1011.7
20260902064517 23 0.0 0.0 0.00 0.00 0.00 95 1011.7
20260902063036 24 0.0 0.0 0.00 0.00 0.00 94 1011.7
20260902061517 24 0.0 0.0 0.00 0.00 0.00 94 1011.8
20260902060016 24 0.0 0.0 0.00 0.00 0.00 93 1011.7
20260902054516 25 0.0 0.0 0.00 0.00 0.00 91 1011.8
20260902053036 25 0.0 0.0 0.00 0.00 0.00 91 1011.8
20260902051516 25 0.0 0.0 0.00 0.00 0.00 90 1011.8
20260902050017 25 0.0 0.0 0.00 0.00 0.00 90 1011.8
20260902044516 25 0.0 0.0 0.00 0.00 0.00 90 1011.7
20260902043016 25 0.0 0.0 0.00 0.00 0.00 90 1011.7
20260902041516 25 0.0 0.0 0.00 0.00 0.00 90 1011.9
20260902040036 25 0.0 0.0 0.00 0.00 0.00 89 1011.9
20260902034517 26 0.0 0.0 0.00 0.00 0.00 87 1011.9
20260902033017 26 0.0 0.0 0.00 0.00 0.00 86 1011.8
20260902031516 26 0.0 0.0 0.00 0.00 0.00 84 1011.8
20260902030037 26 0.0 0.0 0.00 0.00 0.00 83 1011.7
20260902024516 26 0.0 0.0 0.00 0.00 0.00 83 1011.8
20260902023016 26 0.0 1.6 0.00 0.00 0.00 82 1011.7
20260902021516 26 0.0 1.6 0.00 0.00 0.00 83 1011.7
20260902020016 26 0.0 0.0 0.00 0.00 0.00 86 1011.8
20260902014637 26 0.0 0.0 0.00 0.00 0.00 86 1011.8
20260902013017 26 0.0 0.0 0.00 0.00 0.00 86 1011.6
20260902011516 27 0.0 0.0 0.00 0.00 0.00 85 1011.4
20260902010016 27 0.0 0.0 0.00 0.00 0.00 84 1011.3
20260902004538 27 0.0 0.0 0.00 0.00 0.00 83 1011.2
20260902003037 28 0.0 0.0 0.00 0.00 0.00 81 1011.1
20260902001539 28 0.0 0.0 0.00 0.00 0.00 77 1011.3
20260902000017 29 0.0 0.0 0.00 0.00 0.00 75 1011.4
20260901234517 30 0.0 0.0 0.00 0.00 0.00 72 1011.3
20260901233017 31 0.0 0.0 0.00 0.00 0.00 69 1011.5
20260901231517 31 0.0 1.6 0.00 0.00 0.00 62 1011.6
20260901230017 32 0.0 3.2 0.00 0.00 0.00 62 1011.7
20260901224517 32 0.0 3.2 0.00 0.00 0.00 58 1011.7
20260901223040 33 135 1.6 9.7 0.00 0.00 0.00 54 1011.5
20260901221557 33 0.0 8.0 0.00 0.00 0.00 55 1011.5
20260901220017 33 180 1.6 9.7 0.00 0.00 0.00 51 1011.3
20260901214517 33 0.0 6.4 0.00 0.00 0.00 51 1011.2
20260901213039 34 158 1.6 9.7 0.00 0.00 0.00 50 1011.2